Flag Weather past 2 weeks in Billings, Montana, U.S.A.

Now
37 °F

Passing clouds.


Feels Like: 28 °F
Forecast: 33 / 42 °F
Wind: 15 mph from West

Location: Billings Logan International Airport

Current Time: Nov 24, 2014 at 5:56:09 PM

Latest Report: Nov 24, 2014 at 4:53 PM


Visibility: 10 mi

Pressure: 30.17 "Hg

Humidity: 37%

Dew point: 13 °F

Location of BillingsLocation

Historic Weather in Billings — Graph

°F

Billings temperature yesterday

Maximum temperature yesterday: 43 °F (at 1:53 PM)
Minimum temperature yesterday: 31 °F (at 7:53 AM)
Average temperature yesterday: 37 °F

Past Weeks' High & Low Weather Summary

 TemperatureHumidityPressure
High50 °F (Nov 22, 9:53 AM)100% (Nov 9, 8:53 PM)30.89 "Hg (Nov 9, 8:53 PM)
Low-8 °F (Nov 13, 5:53 AM)30% (Nov 23, 12:53 PM)29.40 "Hg (Nov 22, 1:53 PM)
Average20 °F65%30.21 "Hg
* Reported Nov 9 4:53 PM — Nov 24 4:53 PM, Billings, Weather by CustomWeather, © 2014

Note: Actual official high and low records may vary slightly from our data, if they occured in-between our weather recording intervals... More about our weather records

Advertising

Billings weather history for previous 24 hours

 ConditionsComfort  
Time TempWeatherWind HumidityBarometerVisibility
4:53 PM
Nov 24
37 °FPassing clouds.15 mph37%30.17 "Hg10 mi
3:53 PM41 °FScattered clouds.18 mph33%30.17 "Hg10 mi
2:53 PM44 °FScattered clouds.20 mph31%30.16 "Hg10 mi
1:53 PM43 °FPartly sunny.22 mph35%30.15 "Hg10 mi
12:53 PM44 °FPartly sunny.24 mph34%30.14 "Hg10 mi
11:53 AM42 °FBroken clouds.20 mph38%30.14 "Hg10 mi
10:53 AM40 °FBroken clouds.21 mph43%30.13 "Hg10 mi
9:53 AM38 °FScattered clouds.21 mph48%30.12 "Hg10 mi
8:53 AM36 °FPartly sunny.23 mph50%30.10 "Hg10 mi
7:53 AM34 °FScattered clouds.18 mph56%30.07 "Hg10 mi
6:53 AM36 °FPassing clouds.22 mph54%30.03 "Hg10 mi
5:53 AM36 °FMostly cloudy.17 mph59%30.00 "Hg10 mi
4:53 AM37 °FMostly cloudy.18 mph60%29.96 "Hg10 mi
3:53 AM37 °FOvercast.18 mph52%29.91 "Hg10 mi
2:53 AM37 °FMostly cloudy.18 mph52%29.88 "Hg10 mi
1:53 AM39 °FMostly cloudy.24 mph50%29.84 "Hg10 mi
12:53 AM39 °FOvercast.25 mph50%29.84 "Hg10 mi
11:53 PM
Nov 23
39 °FOvercast.22 mph50%29.85 "Hg10 mi
10:53 PM40 °FOvercast.14 mph41%29.86 "Hg10 mi
9:53 PM36 °FMostly cloudy.10 mph46%29.88 "Hg10 mi
8:53 PM35 °FOvercast.7 mph48%29.90 "Hg10 mi
7:53 PM36 °FPassing clouds.12 mph44%29.91 "Hg10 mi
6:53 PM37 °FPassing clouds.13 mph41%29.92 "Hg10 mi
5:53 PM35 °FPassing clouds.9 mph44%29.93 "Hg10 mi
Weather by CustomWeather, © 2014

See weather overviewHow to use our weather pages